Regional Weather Roundup
Issued by NWS

Home | Current Version | Previous Version | Graphics & Text | Print | Product List | Glossary On
Versions: 1 2 3 4 5 6 7 8 9 10 11 12 13 14 15 16 17 18 19 20 21 22 23 24 25 26 27 28 29 30 31 32 33 34 35 36 37 38 39 40 41 42 43 44 45 46 47 48 49 50
306
ASUS43 KMPX 181901
RWRMN
WEATHER ROUNDUP FOR MINNESOTA
NATIONAL WEATHER SERVICE TWIN CITIES/CHANHASSEN MN
200 PM CDT FRI AUG 18 2017


NOTE: "FAIR" INDICATES FEW OR NO CLOUDS BELOW 12,000 FEET WITH NO
SIGNIFICANT WEATHER AND/OR OBSTRUCTIONS TO VISIBILITY. N/A MEANS
CURRENT SKY AND/OR WEATHER CONDITIONS ARE NOT AVAILABLE.

MNZ060>063-068>070-182000-
   Twin Cities Metro

CITY           SKY/WX    TMP DP  RH WIND       PRES   REMARKS
TWIN CITIES    CLOUDY    65  61  87 SW8       29.92S
ST PAUL        PTSUNNY   65  63  93 W9        29.92R
CRYSTAL        CLOUDY    69  61  75 SW9       29.90S
BLAINE         CLOUDY    70  66  88 SW8       29.90S
LAKEVILLE      DRIZZLE   63  63 100 W3        29.93R
EDEN PRAIRIE   LGT RAIN  67  63  87 SW6       29.91F
SOUTH ST PAUL  CLOUDY    65  63  93 W7        29.92R
LAKE ELMO      FAIR      68  63  83 W9G18     29.92S
$$
MNZ001>005-007-008-013>017-022>024-027-028-182000-
   Northwest Minnesota

CITY           SKY/WX    TMP DP  RH WIND       PRES   REMARKS
BEMIDJI        MOSUNNY   76  56  49 W3        29.85F
HALLOCK        SUNNY     81  57  44 W7        29.82F
ROSEAU         CLOUDY    79  59  50 W10       29.83S
WARROAD        MOSUNNY   75  61  60 W5        29.83S
CROOKSTON      CLOUDY    81  55  41 NW13G22   29.84F
FOSSTON        MOSUNNY   82  55  39 CALM      29.85F
DETROIT LAKES  SUNNY     73  61  64 SW6       29.90S
MOORHEAD       PTSUNNY   73  63  68 W6        29.88S
PARK RAPIDS    CLOUDY    76  60  57 W7        29.85F
MAHNOMEN       HVY RAIN  71  62  74 SE7       29.86S
$$
MNZ006-009>011-018-025>026-182000-
   North Central Minnesota

CITY           SKY/WX    TMP DP  RH WIND       PRES   REMARKS
BAUDETTE       SUNNY     79  55  43 N8        29.82R
FLAG ISLAND    SUNNY     79  55  44 W5        29.79F
INTL FALLS     MOSUNNY   77  58  51 NW7       29.81F
WASKISH        MOSUNNY   77  61  57 SW9       29.83F
BIG FORK       SUNNY     79  57  47 CALM      29.84S
LONGVILLE      CLOUDY    72  59  64 S6        29.86S
GRAND RAPIDS   PTSUNNY   75  58  55 W8        29.87F
CRANE LAKE     CLOUDY    73  57  56 N5        29.84S
ORR            CLOUDY    75  54  46 W6        29.81S
COOK           MOSUNNY   73  57  56 NW5       29.84S
WALKER         FAIR      76  56  50 W3        29.85S
$$
MNZ012-019>021-037-182000-
   Northeast Minnesota

CITY           SKY/WX    TMP DP  RH WIND       PRES   REMARKS
DULUTH         CLOUDY    69  61  75 W9        29.86S
ELY            PTSUNNY   70  57  64 W6        29.84F
HIBBING        CLOUDY    71  59  65 VRB3      29.85S
EVELETH        CLOUDY    73  62  67 SW6       29.87S
DULUTH HARBOR  CLOUDY    73  64  73 SW7       29.85S
TWO HARBORS    CLOUDY    73  63  68 CALM      29.83S
GRAND MARAIS     N/A     67  59  75 S7        29.80S
$$
MNZ029>031-032-039>041-046>048-054>057-064-182000-
   West Central Minnesota

CITY           SKY/WX    TMP DP  RH WIND       PRES   REMARKS
FERGUS FALLS   CLOUDY    66  64  94 CALM      29.89F
WHEATON        CLOUDY    70  59  68 NE7       29.89F
MORRIS         CLOUDY    72  64  78 NE5       29.88F
ALEXANDRIA     CLOUDY    68  60  75 NW9       29.93S
ELBOW LAKE     FAIR      62  61  96 SE3       29.90F
WADENA         CLOUDY    61  57  88 SW6       29.90S
GLENWOOD       LGT RAIN  70  61  73 W6        29.91F
APPLETON       MOSUNNY   72  63  73 CALM      29.88F
BENSON         PTSUNNY   72  64  78 W3        29.91F
ORTONVILLE     CLOUDY    75  61  60 MISG      29.88F
MADISON        MOSUNNY   77  64  65 E6        29.88F
WILLMAR        FAIR      72  63  73 SW3       29.93F
$$
MNZ033>034-036-042>043-049>051-058-059-182000-
   Central Minnesota

CITY           SKY/WX    TMP DP  RH WIND       PRES   REMARKS
ST CLOUD       CLOUDY    69  62  78 W7        29.90S
SAUK CENTRE    CLOUDY    72  61  67 SW9       29.91S
PAYNESVILLE    CLOUDY    70  61  74 SW9       29.92S
AITKIN         CLOUDY    72  61  68 SW3       29.86F
PINE RIVER     CLOUDY    73  59  60 SW5       29.89F
BRAINERD       CLOUDY    73  61  65 S9        29.88F
STAPLES        CLOUDY    68  55  64 W12G17    29.89R
LONG PRAIRIE   LGT RAIN  68  61  77 SW9       29.92R
LITTLE FALLS   CLOUDY    72  59  64 SW6       29.90S
LITCHFIELD     MOSUNNY   72  64  78 CALM      29.92S
BUFFALO        CLOUDY    69  61  75 SW3       29.92F
MAPLE LAKE     CLOUDY    70  64  80 W6        29.92F
HUTCHINSON     SUNNY     71  63  76 S6        29.92F
$$
MNZ037-044-045-052-053-182000-
   East Central Minnesota

CITY           SKY/WX    TMP DP  RH WIND       PRES   REMARKS
PRINCETON      CLOUDY    72  64  78 CALM      29.90S
MORA           CLOUDY    68  61  77 W3        29.90S
CAMBRIDGE      CLOUDY    72  61  68 W3        29.90R
RUSH CITY      CLOUDY    68  62  79 W6        29.89S
MOOSE LAKE     CLOUDY    68  61  77 CALM      29.86S
HINCKLEY       FAIR      68  63  83 CALM      29.88F
CLOQUET        CLOUDY    70  57  64 SW6       29.87S
MCGREGOR       CLOUDY    70  63  78 SW3       29.88F
$$
MNZ071>073-080-081-089-090-097-098-182000-
   Southwest Minnesota

CITY           SKY/WX    TMP DP  RH WIND       PRES   REMARKS
MONTEVIDEO     CLOUDY    75  70  83 E3        29.90F
GRANITE FALLS  CLOUDY    76  62  60 CALM      29.92F
CANBY          MOSUNNY   79  60  52 CALM      29.90F
MARSHALL       PTSUNNY   79  60  52 S7        29.90S
REDWOOD FALLS  PTSUNNY   73  59  61 S3        29.91F
OLIVIA         CLOUDY    70  63  78 CALM      29.92R
PIPESTONE      MOSUNNY   75  61  60 SW9       29.92S
WINDOM         SUNNY     75  59  57 SE3       29.92F
WORTHINGTON    SUNNY     75  60  59 SW6       29.93F
JACKSON        SUNNY     72  61  68 CALM      29.94S
TRACY          SUNNY     76  64  65 S7        29.91F
SLAYTON        SUNNY     75  57  53 SW7       29.93F
$$
MNZ065>067-074>077-082>085-091>093-182000-
   South Central Minnesota

CITY           SKY/WX    TMP DP  RH WIND       PRES   REMARKS
MANKATO        PTSUNNY   69  59  70 S7        29.93F
NEW ULM        PTSUNNY   72  59  64 S7        29.91F
ST JAMES       SUNNY     73  61  64 CALM      29.93F
FAIRMONT       MOSUNNY   72  61  68 CALM      29.94F
GLENCOE        CLOUDY    70  64  81 S6        29.92F
FARIBAULT      LGT RAIN  66  63  88 CALM      29.93S
OWATONNA       DRIZZLE   64  61  88 SW5       29.94S
WASECA         MOSUNNY   64  61  88 S5        29.95S
ALBERT LEA     CLOUDY    66  63  88 NW3       29.96R
$$
MNZ078>079-086>088-094>096-182000-
   Southeast Minnesota

CITY           SKY/WX    TMP DP  RH WIND       PRES   REMARKS
ROCHESTER      LGT RAIN  64  63  96 W9        29.95R FOG
RED WING       LGT RAIN  68  63  83 NW8       29.90S
STANTON        LGT RAIN  66  62  86 SW6       29.92S
DODGE CENTER   RAIN      64  61  88 W6        29.95S
WINONA         CLOUDY    70  61  73 NW7       29.90R
AUSTIN         DRIZZLE   63  61  94 NW8       29.95S
PRESTON        CLOUDY    64  60  86 W9        29.94S
$$
ABBREVIATIONS USED IN REMARKS
   TC - TEMPERATURES IN CELSIUS
  WCI - WIND CHILL INDEX
   HX - HEAT INDEX
  VSB - VISIBILITY
$$




USA.gov is the U.S. government's official web portal to all federal, state and local government web resources and services.